Hourly Data Report for October 25, 2020

VICTORIA UNIVERSITY CS
BRITISH COLUMBIA
Current Station Operator: ECCC - MSC

48°27'25.200" N
123°18'16.600" W
60.10 m
1018598
71783
WYJ

Download Data

Hourly Data (October 2020)
Hourly Data Report for October 25, 2020
TIME
LST
Temp Definition
°C
Dew Point Definition
°C
Rel Hum Definition
%
Precip. Amount Definition
mm

Wind Dir Definition
10's deg

Wind Spd Definition
km/h
Visibility Definition
km
Stn Press Definition
kPa
Hmdx Definition


Wind Chill Definition


Weather Definition


00:00 2.5 -6.2 53 0.0 2 15   102.55     LegendNANA
01:00 2.4 -6.9 50 0.0 2 15   102.62     LegendNANA
02:00 2.5 -6.7 51 0.0 3 14   102.66     LegendNANA
03:00 2.3 -6.7 52 0.0 3 7   102.71     LegendNANA
04:00 1.9 -6.8 52 0.0 3 11   102.72     LegendNANA
05:00 2.0 -7.0 51 0.0 3 11   102.73     LegendNANA
06:00 1.7 -6.7 53 0.0 2 6   102.79     LegendNANA
07:00 1.2 -6.5 56 0.0 1 4   102.82     LegendNANA
08:00 2.7 -5.5 55 0.0 1 3   102.84     LegendNANA
09:00 4.2 -5.1 51 0.0 35 5   102.88     LegendNANA
10:00 4.9 -5.0 49 0.0 3 5   102.91     LegendNANA
11:00 4.8 -5.8 46 0.0 1 6   102.86     LegendNANA
12:00 5.2 -6.5 43 0.0 1 13   102.86     LegendNANA
13:00 5.8 -5.5 44 0.0 1 11   102.81     LegendNANA
14:00 6.0 -4.2 48 0.0 1 7   102.74     LegendNANA
15:00 5.5 -5.0 47 0.0 1 8   102.79     LegendNANA
16:00 5.3 -5.5 46 0.0 35 8   102.76     LegendNANA
17:00 4.1 -5.3 50 0.0 36 7   102.72     LegendNANA
18:00 2.2 -3.4 66 0.0 35 4   102.73     LegendNANA
19:00 0.5 -3.4 75 0.0 36 2   102.73     LegendNANA
20:00 0.7 -2.0 82 0.0 29 3   102.74     LegendNANA
21:00 -0.7 -2.6 86 0.0 25 2   102.69   -1 LegendNANA
22:00 -0.2 -2.4 85 0.0 31 5   102.70   -2 LegendNANA
23:00 1.9 -1.9 76 0.0 29 5   102.67     LegendNANA

Notes on Data Quality.

Legend

  • E = Estimated
  • M = Missing
  • NA = Not Available*
  • [empty] = Indicates an unobserved value
Date modified: